| time (UTC) | temp C | wind direction | speed KPH | gust KPH | rain 1hr cm | rain 24hr cm | rain mn cm | humidity % | barometer mb |
| 20260504204931 | 30 | 248 | 0.0 | 1.6 | 0.00 | 0.00 | 0.00 | 42 | 1012.9 |
| 20260504204619 | 30 | 171 | 0.0 | 1.6 | 0.00 | 0.00 | 0.00 | 42 | 1013.0 |
| 20260504204440 | 30 | 150 | 0.0 | 1.6 | 0.00 | 0.00 | 0.00 | 43 | 1013.0 |
| 20260504203933 | 30 | 169 | 0.0 | 8.0 | 0.00 | 0.00 | 0.00 | 43 | 1013.1 |
| 20260504203437 | 30 | 232 | 0.0 | 8.0 | 0.00 | 0.00 | 0.00 | 42 | 1013.3 |
| 20260504203102 | 30 | 187 | 1.6 | 8.0 | 0.00 | 0.00 | 0.00 | 42 | 1013.1 |
| 20260504202925 | 30 | 51 | 0.0 | 1.6 | 0.00 | 0.00 | 0.00 | 42 | 1013.1 |
| 20260504202440 | 30 | 55 | 0.0 | 1.6 | 0.00 | 0.00 | 0.00 | 43 | 1013.3 |
| 20260504201929 | 30 | 36 | 0.0 | 4.8 | 0.00 | 0.00 | 0.00 | 43 | 1013.2 |
| 20260504201521 | 30 | 45 | 0.0 | 4.8 | 0.00 | 0.00 | 0.00 | 42 | 1013.2 |
| 20260504201426 | 30 | 91 | 0.0 | 4.8 | 0.00 | 0.00 | 0.00 | 42 | 1013.3 |
| 20260504200934 | 30 | 159 | 0.0 | 3.2 | 0.00 | 0.00 | 0.00 | 41 | 1013.4 |
| 20260504200431 | 30 | 44 | 0.0 | 1.6 | 0.00 | 0.00 | 0.00 | 43 | 1013.4 |
| 20260504200010 | 30 | 37 | 0.0 | 1.6 | 0.00 | 0.00 | 0.00 | 41 | 1013.5 |
| 20260504195939 | 30 | 36 | 0.0 | 1.6 | 0.00 | 0.00 | 0.00 | 41 | 1013.5 |
| 20260504195428 | 30 | 140 | 0.0 | 1.6 | 0.00 | 0.00 | 0.00 | 42 | 1013.5 |
| 20260504194941 | 30 | 153 | 0.0 | 3.2 | 0.00 | 0.00 | 0.00 | 42 | 1013.6 |
| 20260504194613 | 30 | 217 | 0.0 | 4.8 | 0.00 | 0.00 | 0.00 | 42 | 1013.6 |
| 20260504194431 | 30 | 195 | 0.0 | 4.8 | 0.00 | 0.00 | 0.00 | 43 | 1013.8 |
| 20260504193947 | 30 | 124 | 0.0 | 1.6 | 0.00 | 0.00 | 0.00 | 42 | 1013.7 |
| 20260504193433 | 30 | 152 | 0.0 | 1.6 | 0.00 | 0.00 | 0.00 | 41 | 1013.9 |
| 20260504193051 | 29 | 146 | 0.0 | 1.6 | 0.00 | 0.00 | 0.00 | 41 | 1014.0 |
| 20260504192947 | 30 | 146 | 0.0 | 1.6 | 0.00 | 0.00 | 0.00 | 41 | 1014.1 |
| 20260504192434 | 30 | 164 | 0.0 | 1.6 | 0.00 | 0.00 | 0.00 | 41 | 1014.1 |
| 20260504191942 | 30 | 39 | 0.0 | 1.6 | 0.00 | 0.00 | 0.00 | 41 | 1014.0 |
| 20260504191642 | 30 | 65 | 0.0 | 1.6 | 0.00 | 0.00 | 0.00 | 41 | 1013.9 |
| 20260504191439 | 30 | 17 | 0.0 | 1.6 | 0.00 | 0.00 | 0.00 | 41 | 1014.1 |
| 20260504190925 | 30 | 30 | 0.0 | 3.2 | 0.00 | 0.00 | 0.00 | 41 | 1014.2 |
| 20260504190439 | 30 | 2 | 0.0 | 3.2 | 0.00 | 0.00 | 0.00 | 41 | 1014.2 |
| 20260504190013 | 30 | 121 | 0.0 | 1.6 | 0.00 | 0.00 | 0.00 | 40 | 1014.2 |
| 20260504185927 | 30 | 175 | 0.0 | 1.6 | 0.00 | 0.00 | 0.00 | 41 | 1014.3 |
| 20260504185434 | 30 | 276 | 0.0 | 1.6 | 0.00 | 0.00 | 0.00 | 40 | 1014.3 |
| 20260504184927 | 30 | 41 | 0.0 | 3.2 | 0.00 | 0.00 | 0.00 | 43 | 1014.3 |
| 20260504184601 | 29 | 39 | 0.0 | 3.2 | 0.00 | 0.00 | 0.00 | 42 | 1014.4 |
| 20260504184433 | 30 | 360 | 0.0 | 4.8 | 0.00 | 0.00 | 0.00 | 43 | 1014.5 |
| 20260504183945 | 30 | 43 | 0.0 | 6.4 | 0.00 | 0.00 | 0.00 | 41 | 1014.7 |
| 20260504183433 | 30 | 44 | 1.6 | 6.4 | 0.00 | 0.00 | 0.00 | 41 | 1014.7 |
| 20260504183048 | 30 | 203 | 0.0 | 1.6 | 0.00 | 0.00 | 0.00 | 41 | 1014.8 |
| 20260504182946 | 30 | 203 | 0.0 | 4.8 | 0.00 | 0.00 | 0.00 | 40 | 1014.9 |
| 20260504182432 | 30 | 198 | 0.0 | 4.8 | 0.00 | 0.00 | 0.00 | 41 | 1015.1 |
| 20260504181940 | 30 | 325 | 0.0 | 4.8 | 0.00 | 0.00 | 0.00 | 41 | 1015.1 |
| 20260504181639 | 29 | 41 | 0.0 | 4.8 | 0.00 | 0.00 | 0.00 | 42 | 1015.1 |
| 20260504181437 | 30 | 345 | 0.0 | 1.6 | 0.00 | 0.00 | 0.00 | 43 | 1015.2 |
| 20260504180924 | 29 | 143 | 0.0 | 1.6 | 0.00 | 0.00 | 0.00 | 44 | 1015.4 |
| 20260504180434 | 29 | 351 | 0.0 | 1.6 | 0.00 | 0.00 | 0.00 | 42 | 1015.4 |
| 20260504180007 | 29 | 259 | 0.0 | 4.8 | 0.00 | 0.00 | 0.00 | 43 | 1015.3 |
| 20260504175924 | 29 | 192 | 0.0 | 4.8 | 0.00 | 0.00 | 0.00 | 42 | 1015.4 |
| 20260504175432 | 29 | 44 | 0.0 | 4.8 | 0.00 | 0.00 | 0.00 | 43 | 1015.3 |
| 20260504174925 | 30 | 355 | 0.0 | 4.8 | 0.00 | 0.00 | 0.00 | 41 | 1015.5 |
| 20260504174600 | 30 | 321 | 0.0 | 4.8 | 0.00 | 0.00 | 0.00 | 41 | 1015.3 |
| 20260504174433 | 30 | 18 | 0.0 | 1.6 | 0.00 | 0.00 | 0.00 | 42 | 1015.4 |
| 20260504173948 | 30 | 4 | 0.0 | 3.2 | 0.00 | 0.00 | 0.00 | 42 | 1015.6 |
| 20260504173435 | 30 | 349 | 0.0 | 1.6 | 0.00 | 0.00 | 0.00 | 41 | 1015.6 |
| 20260504173047 | 30 | 217 | 0.0 | 1.6 | 0.00 | 0.00 | 0.00 | 41 | 1015.6 |
| 20260504172948 | 30 | 105 | 0.0 | 1.6 | 0.00 | 0.00 | 0.00 | 41 | 1015.5 |
| 20260504172438 | 30 | 51 | 0.0 | 3.2 | 0.00 | 0.00 | 0.00 | 41 | 1015.6 |
| 20260504171925 | 31 | 63 | 0.0 | 3.2 | 0.00 | 0.00 | 0.00 | 39 | 1015.6 |
| 20260504171640 | 30 | 234 | 0.0 | 1.6 | 0.00 | 0.00 | 0.00 | 39 | 1015.6 |
| 20260504171423 | 31 | 275 | 0.0 | 1.6 | 0.00 | 0.00 | 0.00 | 40 | 1015.8 |
| 20260504170930 | 31 | 141 | 0.0 | 4.8 | 0.00 | 0.00 | 0.00 | 40 | 1015.7 |
| 20260504170445 | 30 | 15 | 0.0 | 4.8 | 0.00 | 0.00 | 0.00 | 40 | 1015.8 |
| 20260504160442 | 29 | 105 | 0.0 | 4.8 | 0.00 | 0.00 | 0.00 | 43 | 1016.6 |
| 20260504150933 | 27 | 27 | 0.0 | 6.4 | 0.00 | 0.00 | 0.00 | 49 | 1016.8 |
| 20260504150448 | 27 | 14 | 0.0 | 4.8 | 0.00 | 0.00 | 0.00 | 49 | 1016.8 |
| 20260504140938 | 26 | 125 | 0.0 | 3.2 | 0.00 | 0.00 | 0.00 | 60 | 1016.6 |
| 20260504140423 | 25 | 49 | 0.0 | 9.7 | 0.00 | 0.00 | 0.00 | 61 | 1016.6 |
| 20260504130441 | 21 | 94 | 0.0 | 6.4 | 0.00 | 0.00 | 0.00 | 71 | 1016.3 |
| 20260504110427 | 17 | 22 | 0.0 | 1.6 | 0.00 | 0.00 | 0.00 | 82 | 1015.6 |
| 20260504100436 | 17 | 18 | 0.0 | 1.6 | 0.00 | 0.00 | 0.00 | 82 | 1015.4 |
| 20260504081925 | 18 | 13 | 0.0 | 3.2 | 0.00 | 0.00 | 0.00 | 80 | 1015.0 |
| 20260504081442 | 18 | 17 | 0.0 | 3.2 | 0.00 | 0.00 | 0.00 | 80 | 1015.1 |
| 20260504080929 | 19 | 354 | 0.0 | 3.2 | 0.00 | 0.00 | 0.00 | 80 | 1015.1 |
| 20260504080437 | 19 | 17 | 0.0 | 3.2 | 0.00 | 0.00 | 0.00 | 80 | 1015.2 |
| 20260504050443 | 20 | 13 | 0.0 | 0.0 | 0.00 | 0.03 | 0.00 | 77 | 1015.8 |
| 20260504050024 | 20 | 13 | 0.0 | 0.0 | 0.00 | 0.03 | 0.00 | 77 | 1015.8 |
| 20260504045930 | 20 | 13 | 0.0 | 0.0 | 0.00 | 0.03 | 0.00 | 77 | 1015.9 |
| 20260504045435 | 20 | 13 | 0.0 | 0.0 | 0.00 | 0.03 | 0.00 | 77 | 1016.2 |
| 20260504044930 | 20 | 13 | 0.0 | 0.0 | 0.00 | 0.03 | 0.00 | 77 | 1016.4 |
| 20260504044514 | 20 | 13 | 0.0 | 1.6 | 0.00 | 0.03 | 0.00 | 77 | 1016.4 |
| 20260504044436 | 20 | 13 | 0.0 | 1.6 | 0.00 | 0.03 | 0.00 | 77 | 1016.5 |
| 20260504043923 | 20 | 13 | 0.0 | 1.6 | 0.00 | 0.03 | 0.00 | 77 | 1016.5 |
| 20260504043437 | 20 | 11 | 0.0 | 0.0 | 0.00 | 0.03 | 0.00 | 77 | 1016.6 |
| 20260504043111 | 20 | 11 | 0.0 | 1.6 | 0.00 | 0.03 | 0.00 | 77 | 1016.6 |
| 20260504042927 | 20 | 11 | 0.0 | 1.6 | 0.00 | 0.03 | 0.00 | 77 | 1016.6 |
| 20260504042439 | 20 | 11 | 0.0 | 1.6 | 0.00 | 0.03 | 0.00 | 77 | 1016.7 |
| 20260504041925 | 20 | 11 | 0.0 | 0.0 | 0.00 | 0.03 | 0.00 | 76 | 1016.8 |
| 20260504041652 | 20 | 11 | 0.0 | 0.0 | 0.00 | 0.03 | 0.00 | 76 | 1016.7 |
| 20260504041442 | 21 | 11 | 0.0 | 0.0 | 0.00 | 0.03 | 0.00 | 77 | 1016.8 |
| 20260504040929 | 21 | 11 | 0.0 | 0.0 | 0.00 | 0.03 | 0.00 | 76 | 1016.9 |
| 20260504040435 | 21 | 11 | 0.0 | 0.0 | 0.00 | 0.03 | 0.00 | 75 | 1017.0 |
| 20260504040023 | 21 | 11 | 0.0 | 0.0 | 0.00 | 0.03 | 0.03 | 75 | 1016.9 |
| 20260504035928 | 21 | 11 | 0.0 | 0.0 | 0.00 | 0.03 | 0.03 | 75 | 1016.9 |
| 20260504035437 | 21 | 11 | 0.0 | 1.6 | 0.00 | 0.03 | 0.03 | 75 | 1017.0 |
| 20260504034928 | 21 | 11 | 0.0 | 0.0 | 0.00 | 0.03 | 0.03 | 75 | 1017.0 |
| 20260504034516 | 21 | 24 | 0.0 | 0.0 | 0.00 | 0.03 | 0.03 | 75 | 1016.9 |
| 20260504034422 | 21 | 23 | 0.0 | 0.0 | 0.00 | 0.03 | 0.03 | 75 | 1017.0 |
| 20260504033930 | 21 | 24 | 0.0 | 0.0 | 0.00 | 0.03 | 0.03 | 75 | 1016.9 |
| 20260504033446 | 21 | 24 | 0.0 | 0.0 | 0.00 | 0.03 | 0.03 | 75 | 1016.8 |
| 20260504033009 | 21 | 24 | 0.0 | 1.6 | 0.00 | 0.03 | 0.03 | 75 | 1016.8 |
| 20260504032934 | 21 | 24 | 0.0 | 1.6 | 0.00 | 0.03 | 0.03 | 75 | 1016.8 |
| 20260504032422 | 21 | 24 | 0.0 | 1.6 | 0.00 | 0.03 | 0.03 | 74 | 1016.8 |
| 20260504031937 | 21 | 23 | 0.0 | 1.6 | 0.00 | 0.03 | 0.03 | 74 | 1016.7 |
| 20260504031430 | 21 | 52 | 0.0 | 1.6 | 0.00 | 0.03 | 0.03 | 74 | 1016.7 |
| 20260504030943 | 21 | 53 | 0.0 | 1.6 | 0.00 | 0.03 | 0.03 | 74 | 1016.7 |
| 20260504030431 | 21 | 51 | 0.0 | 1.6 | 0.00 | 0.03 | 0.03 | 74 | 1016.7 |
| 20260504030047 | 21 | 6 | 0.0 | 1.6 | 0.00 | 0.03 | 0.03 | 73 | 1016.6 |
| 20260504025946 | 22 | 6 | 0.0 | 1.6 | 0.00 | 0.03 | 0.03 | 73 | 1016.6 |
| 20260504025435 | 22 | 4 | 0.0 | 1.6 | 0.00 | 0.03 | 0.03 | 73 | 1016.6 |
| 20260504024922 | 22 | 91 | 0.0 | 1.6 | 0.00 | 0.03 | 0.03 | 73 | 1016.7 |
| 20260504024538 | 22 | 347 | 0.0 | 1.6 | 0.00 | 0.03 | 0.03 | 73 | 1016.6 |
| 20260504024436 | 22 | 18 | 0.0 | 1.6 | 0.00 | 0.03 | 0.03 | 73 | 1016.6 |
| 20260504023924 | 22 | 35 | 0.0 | 1.6 | 0.00 | 0.03 | 0.03 | 73 | 1016.6 |
| 20260504023432 | 22 | 36 | 0.0 | 1.6 | 0.00 | 0.03 | 0.03 | 73 | 1016.6 |
| 20260504023030 | 21 | 55 | 0.0 | 1.6 | 0.00 | 0.03 | 0.03 | 73 | 1016.5 |
| 20260504022946 | 22 | 27 | 0.0 | 1.6 | 0.00 | 0.03 | 0.03 | 73 | 1016.5 |
| 20260504022436 | 22 | 65 | 0.0 | 1.6 | 0.00 | 0.03 | 0.03 | 74 | 1016.4 |
| 20260504021926 | 22 | 65 | 0.0 | 0.0 | 0.00 | 0.03 | 0.03 | 73 | 1016.4 |
| 20260504021512 | 22 | 65 | 0.0 | 1.6 | 0.00 | 0.03 | 0.03 | 73 | 1016.3 |
| 20260504021426 | 22 | 65 | 0.0 | 1.6 | 0.00 | 0.03 | 0.03 | 73 | 1016.3 |
| 20260504020936 | 22 | 65 | 0.0 | 1.6 | 0.00 | 0.03 | 0.03 | 73 | 1016.2 |
| 20260504020431 | 22 | 65 | 0.0 | 1.6 | 0.00 | 0.03 | 0.03 | 73 | 1016.2 |
| 20260504020007 | 22 | 108 | 0.0 | 1.6 | 0.00 | 0.03 | 0.03 | 73 | 1016.1 |
| 20260504015924 | 22 | 109 | 0.0 | 1.6 | 0.00 | 0.03 | 0.03 | 73 | 1016.2 |
| 20260504015432 | 22 | 109 | 0.0 | 1.6 | 0.00 | 0.03 | 0.03 | 72 | 1016.0 |
| 20260504014929 | 22 | 109 | 0.0 | 1.6 | 0.00 | 0.03 | 0.03 | 72 | 1016.0 |
| 20260504014507 | 22 | 109 | 0.0 | 1.6 | 0.00 | 0.03 | 0.03 | 72 | 1015.8 |
| 20260504014441 | 22 | 109 | 0.0 | 1.6 | 0.00 | 0.03 | 0.03 | 72 | 1016.0 |
| 20260504013930 | 22 | 109 | 0.0 | 1.6 | 0.00 | 0.03 | 0.03 | 72 | 1016.0 |
| 20260504013427 | 22 | 108 | 0.0 | 1.6 | 0.00 | 0.03 | 0.03 | 72 | 1016.0 |
| 20260504013003 | 22 | 110 | 0.0 | 1.6 | 0.00 | 0.03 | 0.03 | 72 | 1015.7 |
| 20260504012934 | 22 | 110 | 0.0 | 1.6 | 0.00 | 0.03 | 0.03 | 72 | 1015.8 |
| 20260504012423 | 22 | 110 | 0.0 | 1.6 | 0.00 | 0.03 | 0.03 | 72 | 1015.8 |
| 20260504011938 | 22 | 76 | 0.0 | 0.0 | 0.00 | 0.03 | 0.03 | 71 | 1015.8 |
| 20260504011659 | 22 | 76 | 0.0 | 0.0 | 0.00 | 0.03 | 0.03 | 71 | 1015.6 |
| 20260504011429 | 23 | 76 | 0.0 | 0.0 | 0.00 | 0.03 | 0.03 | 71 | 1015.8 |
| 20260504010923 | 23 | 77 | 0.0 | 1.6 | 0.00 | 0.03 | 0.03 | 70 | 1015.6 |
| 20260504010431 | 23 | 77 | 0.0 | 1.6 | 0.00 | 0.03 | 0.03 | 70 | 1015.5 |
| 20260504010036 | 22 | 84 | 0.0 | 1.6 | 0.00 | 0.03 | 0.03 | 70 | 1015.4 |
| 20260504005945 | 23 | 84 | 0.0 | 1.6 | 0.00 | 0.03 | 0.03 | 70 | 1015.4 |
| 20260504005434 | 23 | 83 | 0.0 | 1.6 | 0.00 | 0.03 | 0.03 | 69 | 1015.4 |
| 20260504004923 | 23 | 83 | 0.0 | 0.0 | 0.00 | 0.03 | 0.03 | 69 | 1015.3 |
| 20260504004533 | 23 | 83 | 0.0 | 0.0 | 0.00 | 0.03 | 0.03 | 68 | 1015.3 |
| 20260504004437 | 23 | 84 | 0.0 | 0.0 | 0.00 | 0.03 | 0.03 | 68 | 1015.3 |
| 20260504003926 | 23 | 84 | 0.0 | 0.0 | 0.00 | 0.03 | 0.03 | 68 | 1015.3 |
| 20260504003436 | 23 | 84 | 0.0 | 0.0 | 0.00 | 0.03 | 0.03 | 67 | 1015.2 |
| 20260504003028 | 23 | 84 | 0.0 | 0.0 | 0.00 | 0.03 | 0.03 | 67 | 1015.0 |
| 20260504002929 | 23 | 84 | 0.0 | 0.0 | 0.00 | 0.03 | 0.03 | 67 | 1015.0 |
| 20260504002438 | 24 | 84 | 0.0 | 0.0 | 0.00 | 0.03 | 0.03 | 66 | 1015.0 |
| 20260504001930 | 24 | 84 | 0.0 | 0.0 | 0.00 | 0.03 | 0.03 | 66 | 1014.9 |
| 20260504001512 | 23 | 84 | 0.0 | 1.6 | 0.00 | 0.03 | 0.03 | 66 | 1014.8 |
| 20260504001430 | 24 | 84 | 0.0 | 1.6 | 0.00 | 0.03 | 0.03 | 65 | 1014.9 |
| 20260504000924 | 24 | 84 | 0.0 | 0.0 | 0.00 | 0.03 | 0.03 | 65 | 1014.9 |
| 20260504000441 | 25 | 84 | 0.0 | 1.6 | 0.00 | 0.03 | 0.03 | 64 | 1014.9 |
| 20260504000027 | 24 | 84 | 0.0 | 1.6 | 0.00 | 0.03 | 0.03 | 64 | 1014.7 |
| 20260503235931 | 25 | 84 | 0.0 | 1.6 | 0.00 | 0.03 | 0.03 | 64 | 1014.9 |
| 20260503235447 | 25 | 84 | 0.0 | 1.6 | 0.00 | 0.03 | 0.03 | 63 | 1014.7 |
| 20260503234936 | 25 | 84 | 0.0 | 1.6 | 0.00 | 0.03 | 0.03 | 62 | 1014.8 |
| 20260503234505 | 25 | 110 | 0.0 | 0.0 | 0.00 | 0.03 | 0.03 | 61 | 1014.7 |
| 20260503234424 | 25 | 110 | 0.0 | 0.0 | 0.00 | 0.03 | 0.03 | 61 | 1014.8 |
| 20260503233935 | 25 | 53 | 0.0 | 1.6 | 0.00 | 0.03 | 0.03 | 61 | 1014.7 |
| 20260503233430 | 26 | 6 | 0.0 | 1.6 | 0.00 | 0.03 | 0.03 | 60 | 1014.6 |
| 20260503233000 | 25 | 103 | 0.0 | 1.6 | 0.00 | 0.03 | 0.03 | 60 | 1014.6 |
| 20260503232938 | 26 | 103 | 0.0 | 1.6 | 0.00 | 0.03 | 0.03 | 60 | 1014.5 |
| 20260503232428 | 26 | 69 | 0.0 | 1.6 | 0.00 | 0.03 | 0.03 | 59 | 1014.5 |
| 20260503231924 | 26 | 71 | 0.0 | 1.6 | 0.00 | 0.03 | 0.03 | 58 | 1014.6 |
| 20260503231444 | 26 | 154 | 0.0 | 1.6 | 0.00 | 0.03 | 0.03 | 58 | 1014.6 |
| 20260503230937 | 27 | 210 | 0.0 | 1.6 | 0.00 | 0.03 | 0.03 | 57 | 1014.5 |
| 20260503230426 | 27 | 162 | 0.0 | 3.2 | 0.00 | 0.03 | 0.03 | 56 | 1014.5 |
| 20260503230043 | 27 | 150 | 0.0 | 3.2 | 0.00 | 0.18 | 0.03 | 56 | 1014.4 |
| 20260503225942 | 27 | 141 | 0.0 | 3.2 | 0.00 | 0.18 | 0.03 | 55 | 1014.5 |
| 20260503225432 | 27 | 179 | 0.0 | 1.6 | 0.00 | 0.18 | 0.03 | 55 | 1014.6 |
| 20260503224922 | 27 | 197 | 0.0 | 1.6 | 0.00 | 0.18 | 0.03 | 54 | 1014.5 |
| 20260503224544 | 27 | 286 | 0.0 | 1.6 | 0.00 | 0.18 | 0.03 | 54 | 1014.4 |
| 20260503224439 | 27 | 275 | 0.0 | 1.6 | 0.00 | 0.18 | 0.03 | 54 | 1014.5 |
| 20260503223927 | 27 | 346 | 0.0 | 1.6 | 0.00 | 0.18 | 0.03 | 55 | 1014.4 |
| 20260503223438 | 27 | 346 | 0.0 | 1.6 | 0.00 | 0.18 | 0.03 | 54 | 1014.4 |
| 20260503223037 | 27 | 345 | 0.0 | 4.8 | 0.00 | 0.18 | 0.03 | 52 | 1014.4 |
| 20260503222925 | 28 | 32 | 0.0 | 4.8 | 0.00 | 0.18 | 0.03 | 52 | 1014.4 |
| 20260503222423 | 28 | 9 | 0.0 | 4.8 | 0.00 | 0.18 | 0.03 | 49 | 1014.4 |
| 20260503221934 | 29 | 17 | 0.0 | 3.2 | 0.00 | 0.18 | 0.03 | 49 | 1014.5 |
| 20260503221515 | 29 | 10 | 0.0 | 6.4 | 0.00 | 0.18 | 0.03 | 49 | 1014.5 |
| 20260503221430 | 29 | 360 | 0.0 | 6.4 | 0.00 | 0.18 | 0.03 | 49 | 1014.5 |
| 20260503220920 | 29 | 8 | 1.6 | 6.4 | 0.00 | 0.18 | 0.03 | 49 | 1014.5 |
| 20260503220436 | 29 | 63 | 0.0 | 1.6 | 0.00 | 0.18 | 0.03 | 50 | 1014.5 |
| 20260503220019 | 29 | 63 | 0.0 | 1.6 | 0.00 | 0.36 | 0.03 | 49 | 1014.4 |
| 20260503215924 | 29 | 63 | 0.0 | 1.6 | 0.00 | 0.36 | 0.03 | 48 | 1014.5 |
| 20260503215433 | 30 | 34 | 0.0 | 1.6 | 0.00 | 0.36 | 0.03 | 49 | 1014.4 |
| 20260503214921 | 29 | 20 | 0.0 | 3.2 | 0.00 | 0.36 | 0.03 | 50 | 1014.5 |
| 20260503214522 | 28 | 63 | 0.0 | 3.2 | 0.00 | 0.36 | 0.03 | 50 | 1014.4 |
| 20260503214435 | 29 | 77 | 0.0 | 3.2 | 0.00 | 0.36 | 0.03 | 50 | 1014.5 |
| 20260503213922 | 28 | 308 | 0.0 | 3.2 | 0.00 | 0.36 | 0.03 | 51 | 1014.5 |
| 20260503213436 | 28 | 150 | 0.0 | 1.6 | 0.00 | 0.36 | 0.03 | 51 | 1014.5 |
| 20260503213002 | 28 | 350 | 0.0 | 3.2 | 0.00 | 0.36 | 0.03 | 52 | 1014.5 |
| 20260503212922 | 28 | 350 | 0.0 | 3.2 | 0.00 | 0.36 | 0.03 | 52 | 1014.5 |
| 20260503212431 | 28 | 338 | 0.0 | 6.4 | 0.00 | 0.36 | 0.03 | 51 | 1014.5 |
| 20260503211928 | 28 | 343 | 0.0 | 6.4 | 0.00 | 0.36 | 0.03 | 51 | 1014.4 |
| 20260503211423 | 28 | 326 | 0.0 | 1.6 | 0.00 | 0.36 | 0.03 | 51 | 1014.4 |
| 20260503210936 | 28 | 48 | 0.0 | 4.8 | 0.00 | 0.36 | 0.03 | 52 | 1014.5 |
| 20260503210424 | 28 | 338 | 0.0 | 6.4 | 0.00 | 0.36 | 0.03 | 53 | 1014.5 |
| 20260503210049 | 27 | 11 | 0.0 | 6.4 | 0.00 | 0.36 | 0.03 | 53 | 1014.5 |
| 20260503205930 | 28 | 11 | 1.6 | 6.4 | 0.00 | 0.36 | 0.03 | 54 | 1014.6 |
| 20260503205423 | 27 | 357 | 0.0 | 4.8 | 0.00 | 0.36 | 0.03 | 54 | 1014.6 |